{"data":{"norad_id":57122,"epoch":"2026-05-25T05:22:43.055616Z","epoch_age_seconds":55880,"freshness":"FRESH","line1":"1 57122U 23090X   26145.22410944  .00003113  00000+0  12267-3 0  9993","line2":"2 57122  43.0008 209.6405 0001158 276.3628  83.7092 15.27556127162031","mean_motion":15.27556127,"eccentricity":0.0001158,"inclination_deg":43.0008,"raan_deg":209.6405,"arg_perigee_deg":276.3628,"mean_anomaly_deg":83.7092,"bstar":0.00012267,"rev_number":16203,"period_min":94.268221936175,"perigee_km":482.32604769298,"apogee_km":483.91511494881,"semimajor_km":6861.2575813209,"source":"CELESTRAK","updated_at":"2026-05-25T13:38:18.243562Z"}}